Regional Weather Roundup
Issued by NWS Cleveland, OH

Home | Current Version | Previous Version | Graphics & Text | Print | Product List | Glossary On
Versions: 1 2 3 4 5 6 7 8 9 10 11 12 13 14 15 16 17 18 19 20 21 22 23 24 25 26 27 28 29 30 31 32 33 34 35 36 37 38 39 40 41 42 43 44 45 46 47 48 49 50
000
ASUS41 KCLE 241610
RWRCLE
OHIO REGIONAL WEATHER ROUNDUP
NATIONAL WEATHER SERVICE WILMINGTON, OH
1100 AM EST TUE JAN 24 2017

NOTE: "FAIR" INDICATES FEW OR NO CLOUDS BELOW 12,000 FEET WITH NO
SIGNIFICANT WEATHER AND/OR OBSTRUCTIONS TO VISIBILITY.

OHZ001>008-015>018-024>027-034-035-043-044-241700-
   NORTHWEST OHIO

CITY           SKY/WX    TMP DP  RH WIND       PRES   REMARKS
DEFIANCE       CLOUDY    39  36  89 NW15      29.83R
FINDLAY        CLOUDY    42  38  85 W14       29.79R FOG
TOLEDO EXPRESS CLOUDY    40  40 100 W8        29.81R
TOLEDO EXEC    CLOUDY    41  39  93 NW13      29.81R
LIMA           CLOUDY    40  39  97 W12       29.82R
$$

OHZ009>014-019>023-028>033-038-089-241700-
   NORTHEAST OHIO

CITY           SKY/WX    TMP DP  RH WIND       PRES   REMARKS
CLE-HOPKINS    CLOUDY    37  32  82 W5        29.78S
CLE-LAKEFRONT  LGT RAIN  36  34  92 W5        29.77R FOG
CUY CO. ARPT   CLOUDY    36  34  93 NW7       29.76R FOG
LORAIN-ELYRIA  CLOUDY    36  32  85 NW6       29.77S
ASHTABULA      CLOUDY    34  31  88 NW7       29.74R WCI  28
AKRON-CANTON   LGT RAIN  37  33  85 NW9       29.73R
WOOSTER        CLOUDY    36  34  92 NW8       29.76R
MANSFIELD      FOG       37  36  96 W8        29.77R VSB 1/4
YOUNGSTOWN     CLOUDY    35  32  88 NW13      29.71R WCI  26
$$

OHZ042-051>053-060>062-070>072-077>081-241700-
  SOUTHWEST OHIO

CITY           SKY/WX    TMP DP  RH WIND       PRES   REMARKS
CINC-COVINGTON CLOUDY    42  39  89 NW10      29.87R
CINC-LUNKEN    CLOUDY    43  39  86 W6G16     29.89R
HAMILTON       CLOUDY    43  39  86 W8        29.88R
DAYTON         CLOUDY    40  38  93 NW15G21   29.85R
WRIGHT-PAT AFB CLOUDY    41  41  99 W10       29.84R
DAYTON GENERAL CLOUDY    41  39  93 W7        29.84R
WILMINGTON     CLOUDY    41  39  93 NW13      29.83R
$$

OHZ036-037-039>041-045>050-054>059-063>069-073>076-082>088-241700-
  CENTRAL AND SOUTHEAST OHIO

CITY           SKY/WX    TMP DP  RH WIND       PRES   REMARKS
COLUMBUS       CLOUDY    42  39  89 NW13      29.80R
OSU AIRPORT    CLOUDY    42  40  92 NW13      29.80R
BOLTON FIELD   CLOUDY    43  41  93 NW7       29.81R
RICKENBACK AFB LGT RAIN  42  41  97 NW9       29.81R
NEWARK         CLOUDY    42  37  82 NW8       29.79R
MARION         LGT RAIN  39  38  96 NW9       29.79S FOG
LANCASTER      CLOUDY    44  39  82 NW10      29.80S
ZANESVILLE     CLOUDY    42  38  85 W7        29.77R
NEW PHILLY     CLOUDY    40  37  89 NW12      29.75R
$$




USA.gov is the U.S. government's official web portal to all federal, state and local government web resources and services.